Time,TemperatureF,DewpointF,PressureIn,WindDirection,WindDirectionDegrees,WindSpeedMPH,WindSpeedGustMPH,Humidity,HourlyPrecipIn,Conditions,Clouds,dailyrainin,SoftwareType,DateUTC
2013-02-22 00:00:00,23.6,16.5,30.41,East,90,0.0,0.0,74,0.00,,,0.00,WUHU216HW,2013-02-22 05:00:00,
2013-02-22 00:05:00,23.4,16.7,30.40,East,90,0.0,0.0,75,0.00,,,0.00,WUHU216HW,2013-02-22 05:05:00,
2013-02-22 00:10:00,23.4,16.7,30.40,East,90,0.0,0.0,75,0.00,,,0.00,WUHU216HW,2013-02-22 05:10:00,
2013-02-22 00:15:00,23.2,16.5,30.40,ESE,113,0.0,0.0,75,0.00,,,0.00,WUHU216HW,2013-02-22 05:15:00,
2013-02-22 00:20:00,23.2,16.5,30.40,ESE,113,0.0,0.0,75,0.00,,,0.00,WUHU216HW,2013-02-22 05:20:00,
2013-02-22 00:25:00,23.2,16.5,30.41,East,90,0.0,0.0,75,0.00,,,0.00,WUHU216HW,2013-02-22 05:25:00,
2013-02-22 00:30:00,23.4,16.7,30.41,East,90,0.0,0.0,75,0.00,,,0.00,WUHU216HW,2013-02-22 05:30:00,
2013-02-22 00:35:00,23.4,16.7,30.42,East,90,0.0,0.0,75,0.00,,,0.00,WUHU216HW,2013-02-22 05:35:00,
2013-02-22 00:40:00,23.4,16.7,30.42,East,90,0.0,0.0,75,0.00,,,0.00,WUHU216HW,2013-02-22 05:40:00,
2013-02-22 00:45:00,23.6,16.5,30.42,East,90,0.0,0.0,74,0.00,,,0.00,WUHU216HW,2013-02-22 05:45:00,
2013-02-22 00:50:00,23.4,16.7,30.42,East,90,0.0,0.0,75,0.00,,,0.00,WUHU216HW,2013-02-22 05:50:00,
2013-02-22 00:55:00,23.6,16.5,30.41,East,90,0.0,0.0,74,0.00,,,0.00,WUHU216HW,2013-02-22 05:55:00,
2013-02-22 01:00:00,23.4,16.3,30.41,ESE,113,0.0,0.0,74,0.00,,,0.00,WUHU216HW,2013-02-22 06:00:00,
2013-02-22 01:05:00,23.2,16.5,30.42,East,90,0.0,0.0,75,0.00,,,0.00,WUHU216HW,2013-02-22 06:05:00,
2013-02-22 01:10:00,23.2,16.5,30.41,East,90,0.0,0.0,75,0.00,,,0.00,WUHU216HW,2013-02-22 06:10:00,
2013-02-22 01:15:00,23.2,16.5,30.42,ESE,113,0.0,0.0,75,0.00,,,0.00,WUHU216HW,2013-02-22 06:15:00,
2013-02-22 01:20:00,23.2,16.5,30.42,ESE,113,0.0,0.0,75,0.00,,,0.00,WUHU216HW,2013-02-22 06:20:00,
2013-02-22 01:25:00,23.4,16.7,30.42,SE,135,0.0,0.0,75,0.00,,,0.00,WUHU216HW,2013-02-22 06:25:00,
2013-02-22 01:30:00,23.2,16.5,30.41,ESE,113,0.0,0.0,75,0.00,,,0.00,WUHU216HW,2013-02-22 06:30:00,
2013-02-22 01:35:00,23.0,16.6,30.41,ENE,68,0.0,0.0,76,0.00,,,0.00,WUHU216HW,2013-02-22 06:35:00,
2013-02-22 01:40:00,23.0,16.9,30.41,ESE,113,0.0,0.0,77,0.00,,,0.00,WUHU216HW,2013-02-22 06:40:00,
2013-02-22 01:45:00,23.0,16.6,30.41,East,90,0.0,0.0,76,0.00,,,0.00,WUHU216HW,2013-02-22 06:45:00,
2013-02-22 01:50:00,23.0,16.9,30.41,ESE,113,0.0,0.0,77,0.00,,,0.00,WUHU216HW,2013-02-22 06:50:00,
2013-02-22 01:55:00,23.0,16.9,30.41,South,180,0.0,0.0,77,0.00,,,0.00,WUHU216HW,2013-02-22 06:55:00,
2013-02-22 02:00:00,23.0,16.9,30.42,ESE,113,0.0,0.0,77,0.00,,,0.00,WUHU216HW,2013-02-22 07:00:00,
2013-02-22 02:05:00,23.0,16.9,30.42,SE,135,0.0,0.0,77,0.00,,,0.00,WUHU216HW,2013-02-22 07:05:00,
2013-02-22 02:10:00,23.0,16.9,30.42,ESE,113,0.0,0.0,77,0.00,,,0.00,WUHU216HW,2013-02-22 07:10:00,
2013-02-22 02:15:00,23.0,16.9,30.42,ESE,113,0.0,0.0,77,0.00,,,0.00,WUHU216HW,2013-02-22 07:15:00,
2013-02-22 02:20:00,23.0,16.9,30.42,SSE,158,0.0,0.0,77,0.00,,,0.00,WUHU216HW,2013-02-22 07:20:00,
2013-02-22 02:25:00,23.0,16.9,30.43,SSE,158,0.0,0.0,77,0.00,,,0.00,WUHU216HW,2013-02-22 07:25:00,
2013-02-22 02:30:00,23.0,16.9,30.43,East,90,0.0,0.0,77,0.00,,,0.00,WUHU216HW,2013-02-22 07:30:00,
2013-02-22 02:35:00,23.0,16.9,30.42,ENE,68,0.0,0.0,77,0.00,,,0.00,WUHU216HW,2013-02-22 07:35:00,
2013-02-22 02:40:00,23.0,16.9,30.42,East,90,0.0,0.0,77,0.00,,,0.00,WUHU216HW,2013-02-22 07:40:00,
2013-02-22 02:45:00,22.9,17.0,30.42,ESE,113,0.0,0.0,78,0.00,,,0.00,WUHU216HW,2013-02-22 07:45:00,
2013-02-22 02:50:00,22.9,17.0,30.41,East,90,0.0,0.0,78,0.00,,,0.00,WUHU216HW,2013-02-22 07:50:00,
2013-02-22 02:55:00,22.7,17.2,30.41,SE,135,0.0,0.0,79,0.00,,,0.00,WUHU216HW,2013-02-22 07:55:00,
2013-02-22 03:00:00,22.7,16.8,30.41,ESE,113,0.0,0.0,78,0.00,,,0.00,WUHU216HW,2013-02-22 08:00:00,
2013-02-22 03:05:00,22.7,16.8,30.41,ENE,68,0.0,0.0,78,0.00,,,0.00,WUHU216HW,2013-02-22 08:05:00,
2013-02-22 03:10:00,22.7,17.2,30.41,ENE,68,0.0,0.0,79,0.00,,,0.00,WUHU216HW,2013-02-22 08:10:00,
2013-02-22 03:15:00,22.7,16.8,30.40,East,90,0.0,0.0,78,0.00,,,0.00,WUHU216HW,2013-02-22 08:15:00,
2013-02-22 03:20:00,22.7,17.7,30.40,ENE,68,0.0,0.0,81,0.00,,,0.00,WUHU216HW,2013-02-22 08:20:00,
2013-02-22 03:25:00,22.7,17.5,30.40,East,90,0.0,0.0,80,0.00,,,0.00,WUHU216HW,2013-02-22 08:25:00,
2013-02-22 03:30:00,22.7,17.7,30.40,ESE,113,0.0,0.0,81,0.00,,,0.00,WUHU216HW,2013-02-22 08:30:00,
2013-02-22 03:35:00,22.7,17.5,30.39,East,90,0.0,0.0,80,0.00,,,0.00,WUHU216HW,2013-02-22 08:35:00,
2013-02-22 03:40:00,22.5,17.0,30.39,ESE,113,0.0,0.0,79,0.00,,,0.00,WUHU216HW,2013-02-22 08:40:00,
2013-02-22 03:45:00,22.5,17.0,30.39,ENE,68,0.0,0.0,79,0.00,,,0.00,WUHU216HW,2013-02-22 08:45:00,
2013-02-22 03:50:00,22.5,17.0,30.39,ENE,68,0.0,0.0,79,0.00,,,0.00,WUHU216HW,2013-02-22 08:50:00,
2013-02-22 04:00:00,22.3,16.8,30.39,SE,135,0.0,0.0,79,0.00,,,0.00,WUHU216HW,2013-02-22 09:00:00,
2013-02-22 04:05:00,22.1,16.7,30.38,East,90,0.0,0.0,79,0.00,,,0.00,WUHU216HW,2013-02-22 09:05:00,
2013-02-22 04:10:00,22.0,16.7,30.38,East,90,0.0,0.0,80,0.00,,,0.00,WUHU216HW,2013-02-22 09:10:00,
2013-02-22 04:15:00,22.0,17.0,30.37,East,90,0.0,0.0,81,0.00,,,0.00,WUHU216HW,2013-02-22 09:15:00,
2013-02-22 04:20:00,22.0,17.0,30.37,East,90,0.0,0.0,81,0.00,,,0.00,WUHU216HW,2013-02-22 09:20:00,
2013-02-22 04:25:00,22.0,17.3,30.37,East,90,0.0,0.0,82,0.00,,,0.00,WUHU216HW,2013-02-22 09:25:00,
2013-02-22 04:30:00,22.0,17.3,30.37,ENE,68,0.0,0.0,82,0.00,,,0.00,WUHU216HW,2013-02-22 09:30:00,
2013-02-22 04:35:00,22.0,17.3,30.37,East,90,0.0,0.0,82,0.00,,,0.00,WUHU216HW,2013-02-22 09:35:00,
2013-02-22 04:40:00,22.0,17.3,30.37,East,90,0.0,0.0,82,0.00,,,0.00,WUHU216HW,2013-02-22 09:40:00,
2013-02-22 04:45:00,21.8,16.8,30.38,East,90,0.0,0.0,81,0.00,,,0.00,WUHU216HW,2013-02-22 09:45:00,
2013-02-22 04:50:00,21.8,17.1,30.37,ESE,113,0.0,0.0,82,0.00,,,0.00,WUHU216HW,2013-02-22 09:50:00,
2013-02-22 04:55:00,21.8,17.1,30.37,East,90,0.0,0.0,82,0.00,,,0.00,WUHU216HW,2013-02-22 09:55:00,
2013-02-22 05:00:00,21.8,17.1,30.37,ESE,113,0.0,0.0,82,0.00,,,0.00,WUHU216HW,2013-02-22 10:00:00,
2013-02-22 05:05:00,21.8,17.1,30.37,ENE,68,0.0,0.0,82,0.00,,,0.00,WUHU216HW,2013-02-22 10:05:00,
2013-02-22 05:10:00,21.6,16.9,30.38,ESE,113,0.0,0.0,82,0.00,,,0.00,WUHU216HW,2013-02-22 10:10:00,
2013-02-22 05:15:00,21.8,17.1,30.37,East,90,0.0,0.0,82,0.00,,,0.00,WUHU216HW,2013-02-22 10:15:00,
2013-02-22 05:20:00,21.6,16.9,30.37,East,90,0.0,0.0,82,0.00,,,0.00,WUHU216HW,2013-02-22 10:20:00,
2013-02-22 05:25:00,21.8,17.1,30.37,ENE,68,0.0,0.0,82,0.00,,,0.00,WUHU216HW,2013-02-22 10:25:00,
2013-02-22 05:30:00,21.8,17.1,30.38,East,90,0.0,0.0,82,0.00,,,0.00,WUHU216HW,2013-02-22 10:30:00,
2013-02-22 05:35:00,22.0,17.0,30.38,East,90,0.0,0.0,81,0.00,,,0.00,WUHU216HW,2013-02-22 10:35:00,
2013-02-22 05:40:00,22.0,17.3,30.38,ESE,113,0.0,0.0,82,0.00,,,0.00,WUHU216HW,2013-02-22 10:40:00,
2013-02-22 05:45:00,22.0,17.3,30.38,SE,135,0.0,0.0,82,0.00,,,0.00,WUHU216HW,2013-02-22 10:45:00,
2013-02-22 05:50:00,22.1,17.5,30.37,East,90,0.0,0.0,82,0.00,,,0.00,WUHU216HW,2013-02-22 10:50:00,
2013-02-22 05:55:00,22.1,17.5,30.37,ESE,113,0.0,0.0,82,0.00,,,0.00,WUHU216HW,2013-02-22 10:55:00,
2013-02-22 06:00:00,22.1,17.5,30.38,ESE,113,0.0,0.0,82,0.00,,,0.00,WUHU216HW,2013-02-22 11:00:00,
2013-02-22 06:05:00,22.3,17.6,30.37,ENE,68,0.0,0.0,82,0.00,,,0.00,WUHU216HW,2013-02-22 11:05:00,
2013-02-22 06:10:00,22.3,17.9,30.36,East,90,0.0,0.0,83,0.00,,,0.00,WUHU216HW,2013-02-22 11:10:00,
2013-02-22 06:15:00,22.3,17.9,30.36,ESE,113,0.0,0.0,83,0.00,,,0.00,WUHU216HW,2013-02-22 11:15:00,
2013-02-22 06:20:00,22.3,17.9,30.36,ESE,113,0.0,0.0,83,0.00,,,0.00,WUHU216HW,2013-02-22 11:20:00,
2013-02-22 06:25:00,22.5,18.1,30.36,East,90,0.0,0.0,83,0.00,,,0.00,WUHU216HW,2013-02-22 11:25:00,
2013-02-22 06:30:00,22.7,18.3,30.36,ENE,68,0.0,0.0,83,0.00,,,0.00,WUHU216HW,2013-02-22 11:30:00,
2013-02-22 06:35:00,22.7,18.3,30.36,East,90,0.0,0.0,83,0.00,,,0.00,WUHU216HW,2013-02-22 11:35:00,
2013-02-22 06:40:00,22.7,18.3,30.35,ENE,68,0.0,0.0,83,0.00,,,0.00,WUHU216HW,2013-02-22 11:40:00,
2013-02-22 06:45:00,22.7,18.3,30.35,SE,135,0.0,0.0,83,0.00,,,0.00,WUHU216HW,2013-02-22 11:45:00,
2013-02-22 06:50:00,22.9,18.5,30.34,ENE,68,0.0,0.0,83,0.00,,,0.00,WUHU216HW,2013-02-22 11:50:00,
2013-02-22 06:55:00,22.9,18.5,30.34,ENE,68,0.0,0.0,83,0.00,,,0.00,WUHU216HW,2013-02-22 11:55:00,
2013-02-22 07:00:00,23.0,18.6,30.34,ENE,68,0.0,0.0,83,0.00,,,0.00,WUHU216HW,2013-02-22 12:00:00,
2013-02-22 07:05:00,23.0,18.4,30.33,ESE,113,0.0,0.0,82,0.00,,,0.00,WUHU216HW,2013-02-22 12:05:00,
2013-02-22 07:10:00,23.0,18.4,30.34,ESE,113,0.0,0.0,82,0.00,,,0.00,WUHU216HW,2013-02-22 12:10:00,
2013-02-22 07:15:00,23.0,18.4,30.34,ESE,113,0.0,0.0,82,0.00,,,0.00,WUHU216HW,2013-02-22 12:15:00,
2013-02-22 07:20:00,23.2,18.5,30.33,ESE,113,0.0,0.0,82,0.00,,,0.00,WUHU216HW,2013-02-22 12:20:00,
2013-02-22 07:25:00,23.4,18.7,30.33,ENE,68,0.0,0.0,82,0.00,,,0.00,WUHU216HW,2013-02-22 12:25:00,
2013-02-22 07:30:00,23.4,18.7,30.33,SE,135,0.0,0.0,82,0.00,,,0.00,WUHU216HW,2013-02-22 12:30:00,
2013-02-22 07:35:00,23.4,18.7,30.33,ESE,113,0.0,0.0,82,0.00,,,0.00,WUHU216HW,2013-02-22 12:35:00,
2013-02-22 07:40:00,23.4,18.7,30.33,ENE,68,0.0,0.0,82,0.00,,,0.00,WUHU216HW,2013-02-22 12:40:00,
2013-02-22 07:45:00,23.4,18.7,30.33,East,90,0.0,0.0,82,0.00,,,0.00,WUHU216HW,2013-02-22 12:45:00,
2013-02-22 07:50:00,23.6,18.9,30.33,ENE,68,0.0,0.0,82,0.00,,,0.00,WUHU216HW,2013-02-22 12:50:00,
2013-02-22 07:55:00,23.8,19.1,30.33,East,90,0.0,0.0,82,0.00,,,0.00,WUHU216HW,2013-02-22 12:55:00,
2013-02-22 08:00:00,23.8,19.1,30.33,ENE,68,0.0,0.0,82,0.00,,,0.00,WUHU216HW,2013-02-22 13:00:00,
2013-02-22 08:05:00,23.9,19.3,30.32,ENE,68,0.0,0.0,82,0.00,,,0.00,WUHU216HW,2013-02-22 13:05:00,
2013-02-22 08:10:00,24.1,19.4,30.32,East,90,0.0,0.0,82,0.00,,,0.00,WUHU216HW,2013-02-22 13:10:00,
2013-02-22 08:15:00,24.3,19.6,30.32,ESE,113,0.0,0.0,82,0.00,,,0.00,WUHU216HW,2013-02-22 13:15:00,
2013-02-22 08:20:00,24.3,19.4,30.31,SE,135,0.0,0.0,81,0.00,,,0.00,WUHU216HW,2013-02-22 13:20:00,
2013-02-22 08:25:00,24.3,19.6,30.31,East,90,0.0,0.0,82,0.00,,,0.00,WUHU216HW,2013-02-22 13:25:00,
2013-02-22 08:30:00,24.5,19.5,30.31,ENE,68,0.0,0.0,81,0.00,,,0.00,WUHU216HW,2013-02-22 13:30:00,
2013-02-22 08:35:00,24.3,19.4,30.31,ESE,113,0.0,0.0,81,0.00,,,0.00,WUHU216HW,2013-02-22 13:35:00,
2013-02-22 08:40:00,24.5,19.5,30.31,ESE,113,0.0,0.0,81,0.00,,,0.00,WUHU216HW,2013-02-22 13:40:00,
2013-02-22 08:45:00,24.7,19.7,30.31,ENE,68,0.0,0.0,81,0.00,,,0.00,WUHU216HW,2013-02-22 13:45:00,
2013-02-22 08:50:00,24.8,19.6,30.31,SE,135,0.0,0.0,80,0.00,,,0.00,WUHU216HW,2013-02-22 13:50:00,
2013-02-22 08:55:00,24.8,19.6,30.31,East,90,0.0,0.0,80,0.00,,,0.00,WUHU216HW,2013-02-22 13:55:00,
2013-02-22 09:00:00,25.0,19.8,30.31,East,90,0.0,0.0,80,0.00,,,0.00,WUHU216HW,2013-02-22 14:00:00,
2013-02-22 09:05:00,25.2,20.0,30.30,East,90,0.0,0.0,80,0.00,,,0.00,WUHU216HW,2013-02-22 14:05:00,
2013-02-22 09:10:00,25.4,20.1,30.30,East,90,0.0,0.0,80,0.00,,,0.00,WUHU216HW,2013-02-22 14:10:00,
2013-02-22 09:15:00,25.4,20.1,30.30,ESE,113,0.0,0.0,80,0.00,,,0.00,WUHU216HW,2013-02-22 14:15:00,
2013-02-22 09:20:00,25.4,20.3,30.30,East,90,0.0,0.0,81,0.00,,,0.00,WUHU216HW,2013-02-22 14:20:00,
2013-02-22 09:25:00,25.6,20.3,30.30,East,90,0.0,0.0,80,0.00,,,0.00,WUHU216HW,2013-02-22 14:25:00,
2013-02-22 09:30:00,25.6,20.3,30.29,ESE,113,0.0,0.0,80,0.00,,,0.00,WUHU216HW,2013-02-22 14:30:00,
2013-02-22 09:35:00,25.7,20.1,30.28,SE,135,0.0,0.0,79,0.00,,,0.00,WUHU216HW,2013-02-22 14:35:00,
2013-02-22 09:40:00,25.9,20.3,30.28,ESE,113,0.0,0.0,79,0.00,,,0.00,WUHU216HW,2013-02-22 14:40:00,
2013-02-22 09:45:00,26.3,20.6,30.27,ESE,113,0.0,0.0,79,0.00,,,0.00,WUHU216HW,2013-02-22 14:45:00,
2013-02-22 09:50:00,26.3,20.6,30.26,ENE,68,0.0,0.0,79,0.00,,,0.00,WUHU216HW,2013-02-22 14:50:00,
2013-02-22 09:55:00,26.5,20.8,30.26,East,90,0.0,0.0,79,0.00,,,0.00,WUHU216HW,2013-02-22 14:55:00,
2013-02-22 10:00:00,26.6,20.6,30.25,East,90,0.0,0.0,78,0.00,,,0.00,WUHU216HW,2013-02-22 15:00:00,
2013-02-22 10:05:00,27.0,21.0,30.25,ESE,113,0.0,0.0,78,0.00,,,0.00,WUHU216HW,2013-02-22 15:05:00,
2013-02-22 10:10:00,27.2,21.2,30.24,ENE,68,0.0,0.0,78,0.00,,,0.00,WUHU216HW,2013-02-22 15:10:00,
2013-02-22 10:15:00,27.4,21.1,30.24,ENE,68,0.0,0.0,77,0.00,,,0.00,WUHU216HW,2013-02-22 15:15:00,
2013-02-22 10:20:00,27.5,21.3,30.23,ENE,68,0.0,0.0,77,0.00,,,0.00,WUHU216HW,2013-02-22 15:20:00,
2013-02-22 10:25:00,27.7,21.1,30.23,East,90,0.0,0.0,76,0.00,,,0.00,WUHU216HW,2013-02-22 15:25:00,
2013-02-22 10:30:00,28.1,21.2,30.23,East,90,0.0,0.0,75,0.00,,,0.00,WUHU216HW,2013-02-22 15:30:00,
2013-02-22 10:35:00,28.4,21.5,30.22,East,90,0.0,0.0,75,0.00,,,0.00,WUHU216HW,2013-02-22 15:35:00,
2013-02-22 10:40:00,28.4,21.5,30.22,East,90,0.0,0.0,75,0.00,,,0.00,WUHU216HW,2013-02-22 15:40:00,
2013-02-22 10:45:00,28.6,21.7,30.22,East,90,0.0,0.0,75,0.00,,,0.00,WUHU216HW,2013-02-22 15:45:00,
2013-02-22 10:50:00,28.8,21.9,30.22,ESE,113,0.0,0.0,75,0.00,,,0.00,WUHU216HW,2013-02-22 15:50:00,
2013-02-22 10:55:00,29.0,22.1,30.22,East,90,0.0,0.0,75,0.00,,,0.00,WUHU216HW,2013-02-22 15:55:00,
2013-02-22 11:00:00,29.2,22.2,30.22,ESE,113,0.0,0.0,75,0.00,,,0.00,WUHU216HW,2013-02-22 16:00:00,
2013-02-22 11:05:00,29.2,21.9,30.22,NNE,23,0.0,0.0,74,0.00,,,0.00,WUHU216HW,2013-02-22 16:05:00,
2013-02-22 11:10:00,29.2,21.9,30.21,ENE,68,0.0,0.0,74,0.00,,,0.00,WUHU216HW,2013-02-22 16:10:00,
2013-02-22 11:15:00,29.5,22.2,30.21,ENE,68,0.0,0.0,74,0.00,,,0.00,WUHU216HW,2013-02-22 16:15:00,
2013-02-22 11:20:00,29.7,22.1,30.21,East,90,0.0,0.0,73,0.00,,,0.00,WUHU216HW,2013-02-22 16:20:00,
2013-02-22 11:25:00,29.9,22.2,30.20,East,90,0.0,0.0,73,0.00,,,0.00,WUHU216HW,2013-02-22 16:25:00,
2013-02-22 11:30:00,29.9,22.2,30.21,SE,135,0.0,0.0,73,0.00,,,0.00,WUHU216HW,2013-02-22 16:30:00,
2013-02-22 11:35:00,30.1,22.4,30.21,East,90,0.0,0.0,73,0.00,,,0.00,WUHU216HW,2013-02-22 16:35:00,
2013-02-22 11:40:00,30.4,22.4,30.20,East,90,0.0,0.0,72,0.00,,,0.00,WUHU216HW,2013-02-22 16:40:00,
2013-02-22 11:45:00,30.6,22.6,30.19,East,90,0.0,0.0,72,0.00,,,0.00,WUHU216HW,2013-02-22 16:45:00,
2013-02-22 11:50:00,30.6,23.0,30.18,ENE,68,0.0,0.0,73,0.00,,,0.00,WUHU216HW,2013-02-22 16:50:00,
2013-02-22 11:55:00,30.8,23.1,30.18,NE,45,0.0,0.0,73,0.00,,,0.00,WUHU216HW,2013-02-22 16:55:00,
2013-02-22 12:00:00,30.6,22.6,30.18,East,90,0.0,0.0,72,0.00,,,0.00,WUHU216HW,2013-02-22 17:00:00,
2013-02-22 12:05:00,30.6,23.0,30.17,NE,45,0.0,0.0,73,0.00,,,0.00,WUHU216HW,2013-02-22 17:05:00,
2013-02-22 12:10:00,30.8,23.1,30.16,ESE,113,0.0,0.0,73,0.00,,,0.00,WUHU216HW,2013-02-22 17:10:00,
2013-02-22 12:15:00,30.8,22.8,30.16,ESE,113,0.0,0.0,72,0.00,,,0.00,WUHU216HW,2013-02-22 17:15:00,
2013-02-22 12:20:00,31.1,23.1,30.15,East,90,0.0,0.0,72,0.00,,,0.00,WUHU216HW,2013-02-22 17:20:00,
2013-02-22 12:25:00,31.3,23.3,30.15,SE,135,0.0,0.0,72,0.00,,,0.00,WUHU216HW,2013-02-22 17:25:00,
2013-02-22 12:30:00,31.3,23.3,30.15,East,90,0.0,0.0,72,0.00,,,0.00,WUHU216HW,2013-02-22 17:30:00,
2013-02-22 12:35:00,31.5,23.5,30.15,SE,135,0.0,0.0,72,0.00,,,0.00,WUHU216HW,2013-02-22 17:35:00,
2013-02-22 12:40:00,31.5,23.2,30.15,ESE,113,0.0,0.0,71,0.00,,,0.00,WUHU216HW,2013-02-22 17:40:00,
2013-02-22 12:45:00,31.7,23.4,30.15,ENE,68,0.0,0.0,71,0.00,,,0.00,WUHU216HW,2013-02-22 17:45:00,
2013-02-22 12:50:00,32.0,23.8,30.15,ESE,113,0.0,0.0,71,0.00,,,0.00,WUHU216HW,2013-02-22 17:50:00,
2013-02-22 12:55:00,32.0,23.8,30.14,East,90,0.0,0.0,71,0.00,,,0.00,WUHU216HW,2013-02-22 17:55:00,
2013-02-22 13:00:00,32.0,23.4,30.15,ENE,68,0.0,0.0,70,0.00,,,0.00,WUHU216HW,2013-02-22 18:00:00,
2013-02-22 13:05:00,32.0,23.8,30.15,ESE,113,0.0,0.0,71,0.00,,,0.00,WUHU216HW,2013-02-22 18:05:00,
2013-02-22 13:10:00,32.2,23.6,30.14,ESE,113,0.0,0.0,70,0.00,,,0.00,WUHU216HW,2013-02-22 18:10:00,
2013-02-22 13:15:00,32.2,23.9,30.15,East,90,0.0,0.0,71,0.00,,,0.00,WUHU216HW,2013-02-22 18:15:00,
2013-02-22 13:20:00,32.2,23.9,30.14,ENE,68,0.0,0.0,71,0.00,,,0.00,WUHU216HW,2013-02-22 18:20:00,
2013-02-22 13:25:00,32.0,23.8,30.14,ENE,68,0.0,0.0,71,0.00,,,0.00,WUHU216HW,2013-02-22 18:25:00,
2013-02-22 13:30:00,32.0,24.0,30.14,ESE,113,0.0,0.0,72,0.00,,,0.00,WUHU216HW,2013-02-22 18:30:00,
2013-02-22 13:35:00,32.0,23.8,30.14,East,90,0.0,0.0,71,0.00,,,0.00,WUHU216HW,2013-02-22 18:35:00,
2013-02-22 13:40:00,32.6,24.6,30.14,ESE,113,0.0,0.0,72,0.00,,,0.00,WUHU216HW,2013-02-22 18:40:00,
2013-02-22 13:45:00,32.8,24.4,30.14,East,90,0.0,0.0,71,0.00,,,0.00,WUHU216HW,2013-02-22 18:45:00,
2013-02-22 13:50:00,32.8,24.7,30.15,East,90,0.0,0.0,72,0.00,,,0.00,WUHU216HW,2013-02-22 18:50:00,
2013-02-22 13:55:00,32.8,24.7,30.15,East,90,0.0,0.0,72,0.00,,,0.00,WUHU216HW,2013-02-22 18:55:00,
2013-02-22 14:00:00,32.6,25.2,30.14,ESE,113,0.0,0.0,74,0.00,,,0.00,WUHU216HW,2013-02-22 19:00:00,
2013-02-22 14:05:00,32.0,25.4,30.14,ESE,113,0.0,0.0,76,0.00,,,0.00,WUHU216HW,2013-02-22 19:05:00,
2013-02-22 14:10:00,31.9,25.8,30.14,ESE,113,0.0,0.0,78,0.00,,,0.00,WUHU216HW,2013-02-22 19:10:00,
2013-02-22 14:15:00,31.7,25.9,30.14,East,90,0.0,0.0,79,0.00,,,0.00,WUHU216HW,2013-02-22 19:15:00,
2013-02-22 14:20:00,31.7,25.9,30.13,ENE,68,0.0,0.0,79,0.00,,,0.00,WUHU216HW,2013-02-22 19:20:00,
2013-02-22 14:25:00,31.7,26.6,30.12,East,90,0.0,0.0,81,0.00,,,0.00,WUHU216HW,2013-02-22 19:25:00,
2013-02-22 14:30:00,31.9,27.6,30.12,East,90,0.0,0.0,84,0.00,,,0.00,WUHU216HW,2013-02-22 19:30:00,
2013-02-22 14:35:00,32.4,27.8,30.12,East,90,0.0,0.0,83,0.00,,,0.00,WUHU216HW,2013-02-22 19:35:00,
2013-02-22 14:40:00,32.6,28.0,30.11,ENE,68,0.0,0.0,83,0.00,,,0.00,WUHU216HW,2013-02-22 19:40:00,
2013-02-22 14:45:00,33.1,28.4,30.11,ESE,113,0.0,0.0,83,0.00,,,0.00,WUHU216HW,2013-02-22 19:45:00,
2013-02-22 14:50:00,32.9,27.7,30.10,ENE,68,0.0,0.0,81,0.00,,,0.00,WUHU216HW,2013-02-22 19:50:00,
2013-02-22 14:55:00,32.6,28.0,30.11,SE,135,0.0,0.0,83,0.00,,,0.00,WUHU216HW,2013-02-22 19:55:00,
2013-02-22 15:00:00,32.6,28.3,30.10,ESE,113,0.0,0.0,84,0.00,,,0.00,WUHU216HW,2013-02-22 20:00:00,
2013-02-22 15:05:00,32.9,28.4,30.10,East,90,0.0,0.0,83,0.00,,,0.00,WUHU216HW,2013-02-22 20:05:00,
2013-02-22 15:10:00,32.8,28.2,30.10,ENE,68,0.0,0.0,83,0.00,,,0.00,WUHU216HW,2013-02-22 20:10:00,
2013-02-22 15:15:00,32.6,28.0,30.09,East,90,0.0,0.0,83,0.00,,,0.00,WUHU216HW,2013-02-22 20:15:00,
2013-02-22 15:20:00,32.4,27.8,30.09,ENE,68,0.0,0.0,83,0.00,,,0.00,WUHU216HW,2013-02-22 20:20:00,
2013-02-22 15:25:00,32.8,28.2,30.09,ENE,68,0.0,0.0,83,0.00,,,0.00,WUHU216HW,2013-02-22 20:25:00,
2013-02-22 15:30:00,32.9,28.4,30.09,East,90,0.0,0.0,83,0.01,,,0.01,WUHU216HW,2013-02-22 20:30:00,
2013-02-22 15:35:00,32.8,28.2,30.08,East,90,0.0,0.0,83,0.01,,,0.01,WUHU216HW,2013-02-22 20:35:00,
2013-02-22 15:40:00,32.8,28.4,30.08,East,90,0.0,0.0,84,0.01,,,0.01,WUHU216HW,2013-02-22 20:40:00,
2013-02-22 15:45:00,32.8,28.4,30.08,ESE,113,0.0,0.0,84,0.01,,,0.01,WUHU216HW,2013-02-22 20:45:00,
2013-02-22 15:50:00,32.8,28.2,30.08,ENE,68,0.0,0.0,83,0.01,,,0.01,WUHU216HW,2013-02-22 20:50:00,
2013-02-22 15:55:00,32.8,28.2,30.08,ENE,68,0.0,0.0,83,0.01,,,0.01,WUHU216HW,2013-02-22 20:55:00,
2013-02-22 16:00:00,32.6,28.3,30.08,NE,45,0.0,0.0,84,0.01,,,0.01,WUHU216HW,2013-02-22 21:00:00,
2013-02-22 16:05:00,32.6,28.3,30.08,ESE,113,0.0,0.0,84,0.01,,,0.01,WUHU216HW,2013-02-22 21:05:00,
2013-02-22 16:10:00,32.6,28.3,30.07,ESE,113,0.0,0.0,84,0.01,,,0.01,WUHU216HW,2013-02-22 21:10:00,
2013-02-22 16:15:00,32.6,28.3,30.07,ENE,68,0.0,0.0,84,0.01,,,0.01,WUHU216HW,2013-02-22 21:15:00,
2013-02-22 16:20:00,32.6,28.0,30.07,East,90,0.0,0.0,83,0.01,,,0.01,WUHU216HW,2013-02-22 21:20:00,
2013-02-22 16:25:00,32.6,28.0,30.07,ESE,113,0.0,0.0,83,0.00,,,0.01,WUHU216HW,2013-02-22 21:25:00,
2013-02-22 16:30:00,32.4,28.1,30.07,ESE,113,0.0,0.0,84,0.00,,,0.01,WUHU216HW,2013-02-22 21:30:00,
2013-02-22 16:35:00,32.4,27.8,30.07,East,90,0.0,0.0,83,0.00,,,0.01,WUHU216HW,2013-02-22 21:35:00,
2013-02-22 16:40:00,32.4,28.1,30.07,ENE,68,0.0,0.0,84,0.00,,,0.01,WUHU216HW,2013-02-22 21:40:00,
2013-02-22 16:45:00,32.6,28.3,30.07,East,90,0.0,0.0,84,0.00,,,0.01,WUHU216HW,2013-02-22 21:45:00,
2013-02-22 16:50:00,32.6,28.3,30.06,East,90,0.0,0.0,84,0.00,,,0.01,WUHU216HW,2013-02-22 21:50:00,
2013-02-22 16:55:00,32.6,28.5,30.07,ENE,68,0.0,0.0,85,0.00,,,0.01,WUHU216HW,2013-02-22 21:55:00,
2013-02-22 17:00:00,32.6,28.5,30.06,ENE,68,0.0,0.0,85,0.00,,,0.01,WUHU216HW,2013-02-22 22:00:00,
2013-02-22 17:05:00,32.4,28.5,30.06,ESE,113,0.0,0.0,85,0.00,,,0.01,WUHU216HW,2013-02-22 22:05:00,
2013-02-22 17:10:00,32.6,28.5,30.06,ESE,113,0.0,0.0,85,0.00,,,0.01,WUHU216HW,2013-02-22 22:10:00,
2013-02-22 17:15:00,32.6,28.5,30.06,East,90,0.0,0.0,85,0.00,,,0.01,WUHU216HW,2013-02-22 22:15:00,
2013-02-22 17:20:00,32.6,28.5,30.06,ENE,68,0.0,0.0,85,0.00,,,0.01,WUHU216HW,2013-02-22 22:20:00,
2013-02-22 17:25:00,32.4,28.5,30.06,East,90,0.0,0.0,85,0.00,,,0.01,WUHU216HW,2013-02-22 22:25:00,
2013-02-22 17:30:00,32.4,28.5,30.06,East,90,0.0,0.0,85,0.00,,,0.01,WUHU216HW,2013-02-22 22:30:00,
2013-02-22 17:35:00,32.4,28.5,30.06,East,90,0.0,0.0,85,0.00,,,0.01,WUHU216HW,2013-02-22 22:35:00,
2013-02-22 17:40:00,32.6,28.5,30.06,East,90,0.0,0.0,85,0.00,,,0.01,WUHU216HW,2013-02-22 22:40:00,
2013-02-22 17:45:00,32.6,28.3,30.06,East,90,0.0,0.0,84,0.00,,,0.01,WUHU216HW,2013-02-22 22:45:00,
2013-02-22 17:50:00,32.6,28.3,30.05,ESE,113,0.0,0.0,84,0.00,,,0.01,WUHU216HW,2013-02-22 22:50:00,
2013-02-22 17:55:00,32.8,28.4,30.06,East,90,0.0,0.0,84,0.00,,,0.01,WUHU216HW,2013-02-22 22:55:00,
2013-02-22 18:00:00,32.8,28.4,30.05,East,90,0.0,0.0,84,0.00,,,0.01,WUHU216HW,2013-02-22 23:00:00,
2013-02-22 18:05:00,32.8,28.4,30.05,ESE,113,0.0,0.0,84,0.00,,,0.01,WUHU216HW,2013-02-22 23:05:00,
2013-02-22 18:10:00,32.8,28.4,30.05,ESE,113,0.0,0.0,84,0.00,,,0.01,WUHU216HW,2013-02-22 23:10:00,
2013-02-22 18:15:00,32.8,28.2,30.05,East,90,0.0,0.0,83,0.00,,,0.01,WUHU216HW,2013-02-22 23:15:00,
2013-02-22 18:20:00,32.8,28.2,30.05,East,90,0.0,0.0,83,0.00,,,0.01,WUHU216HW,2013-02-22 23:20:00,
2013-02-22 18:44:00,33.1,28.4,30.05,East,90,0.0,0.0,83,0.00,,,0.01,WUHU216HW,2013-02-22 23:44:00,
2013-02-22 18:49:00,33.1,28.4,30.05,SE,135,0.0,0.0,83,0.00,,,0.01,WUHU216HW,2013-02-22 23:49:00,
2013-02-22 18:54:00,33.3,28.6,30.05,East,90,0.0,0.0,83,0.00,,,0.01,WUHU216HW,2013-02-22 23:54:00,
2013-02-22 18:59:00,33.3,28.6,30.05,ESE,113,0.0,0.0,83,0.00,,,0.01,WUHU216HW,2013-02-22 23:59:00,
2013-02-22 19:04:00,33.3,28.6,30.05,ESE,113,0.0,0.0,83,0.00,,,0.01,WUHU216HW,2013-02-23 00:04:00,
2013-02-22 19:09:00,33.5,28.8,30.05,ESE,113,0.0,0.0,83,0.00,,,0.01,WUHU216HW,2013-02-23 00:09:00,
2013-02-22 19:14:00,33.5,28.5,30.05,ESE,113,0.0,0.0,82,0.00,,,0.01,WUHU216HW,2013-02-23 00:14:00,
2013-02-22 19:19:00,33.5,28.5,30.05,SE,135,0.0,0.0,82,0.00,,,0.01,WUHU216HW,2013-02-23 00:19:00,
2013-02-22 19:24:00,33.5,28.5,30.05,SE,135,0.0,0.0,82,0.00,,,0.01,WUHU216HW,2013-02-23 00:24:00,
2013-02-22 19:29:00,33.7,28.7,30.05,ESE,113,0.0,0.0,82,0.00,,,0.01,WUHU216HW,2013-02-23 00:29:00,
2013-02-22 19:34:00,33.7,28.7,30.05,SE,135,0.0,0.0,82,0.00,,,0.01,WUHU216HW,2013-02-23 00:34:00,
2013-02-22 19:39:00,33.7,28.7,30.05,SE,135,0.0,0.0,82,0.00,,,0.01,WUHU216HW,2013-02-23 00:39:00,
2013-02-22 19:44:00,33.7,28.7,30.05,SE,135,0.0,0.0,82,0.00,,,0.01,WUHU216HW,2013-02-23 00:44:00,
2013-02-22 19:49:00,33.8,29.2,30.05,East,90,0.0,0.0,83,0.00,,,0.01,WUHU216HW,2013-02-23 00:49:00,
2013-02-22 19:54:00,33.7,29.0,30.04,South,180,0.0,0.0,83,0.00,,,0.01,WUHU216HW,2013-02-23 00:54:00,
2013-02-22 19:59:00,33.7,29.0,30.04,SE,135,0.0,0.0,83,0.00,,,0.01,WUHU216HW,2013-02-23 00:59:00,
2013-02-22 20:04:00,33.7,29.0,30.04,SE,135,0.0,0.0,83,0.00,,,0.01,WUHU216HW,2013-02-23 01:04:00,
2013-02-22 20:09:00,33.8,29.2,30.04,ESE,113,0.0,0.0,83,0.00,,,0.01,WUHU216HW,2013-02-23 01:09:00,
2013-02-22 20:14:00,33.8,29.2,30.04,ESE,113,0.0,0.0,83,0.00,,,0.01,WUHU216HW,2013-02-23 01:14:00,
2013-02-22 20:19:00,33.8,29.2,30.04,ESE,113,0.0,0.0,83,0.00,,,0.01,WUHU216HW,2013-02-23 01:19:00,
2013-02-22 20:41:00,34.0,29.6,30.04,SE,135,0.0,0.0,84,0.00,,,0.01,WUHU216HW,2013-02-23 01:41:00,
2013-02-22 20:46:00,34.0,29.6,30.04,ESE,113,0.0,0.0,84,0.00,,,0.01,WUHU216HW,2013-02-23 01:46:00,
2013-02-22 20:51:00,34.2,29.8,30.04,ESE,113,0.0,0.0,84,0.00,,,0.01,WUHU216HW,2013-02-23 01:51:00,
2013-02-22 20:56:00,34.2,29.8,30.04,ESE,113,0.0,0.0,84,0.00,,,0.01,WUHU216HW,2013-02-23 01:56:00,
2013-02-22 21:01:00,34.2,29.8,30.04,ESE,113,0.0,0.0,84,0.00,,,0.01,WUHU216HW,2013-02-23 02:01:00,
2013-02-22 21:06:00,34.2,29.8,30.04,ESE,113,0.0,0.0,84,0.00,,,0.01,WUHU216HW,2013-02-23 02:06:00,
2013-02-22 21:11:00,34.2,29.8,30.04,ESE,113,0.0,0.0,84,0.00,,,0.01,WUHU216HW,2013-02-23 02:11:00,
2013-02-22 21:16:00,34.2,29.8,30.04,ESE,113,0.0,0.0,84,0.00,,,0.01,WUHU216HW,2013-02-23 02:16:00,
2013-02-22 21:21:00,34.2,29.8,30.04,ESE,113,0.0,0.0,84,0.00,,,0.01,WUHU216HW,2013-02-23 02:21:00,
2013-02-22 21:26:00,34.2,29.8,30.04,ESE,113,0.0,0.0,84,0.00,,,0.01,WUHU216HW,2013-02-23 02:26:00,
2013-02-22 21:31:00,34.2,29.8,30.04,WNW,293,0.0,0.0,84,0.00,,,0.01,WUHU216HW,2013-02-23 02:31:00,
2013-02-22 21:36:00,34.2,29.8,30.04,ENE,68,0.0,0.0,84,0.00,,,0.01,WUHU216HW,2013-02-23 02:36:00,
2013-02-22 21:41:00,34.4,30.0,30.04,ENE,68,0.0,0.0,84,0.00,,,0.01,WUHU216HW,2013-02-23 02:41:00,
2013-02-22 21:46:00,34.2,29.8,30.04,East,90,0.0,0.0,84,0.00,,,0.01,WUHU216HW,2013-02-23 02:46:00,
2013-02-22 21:51:00,34.4,30.0,30.04,East,90,0.0,0.0,84,0.00,,,0.01,WUHU216HW,2013-02-23 02:51:00,
2013-02-22 21:56:00,34.4,30.0,30.04,ESE,113,0.0,0.0,84,0.00,,,0.01,WUHU216HW,2013-02-23 02:56:00,
2013-02-22 22:01:00,34.4,29.7,30.04,East,90,0.0,0.0,83,0.00,,,0.01,WUHU216HW,2013-02-23 03:01:00,
2013-02-22 22:06:00,34.4,29.7,30.04,ESE,113,0.0,0.0,83,0.00,,,0.01,WUHU216HW,2013-02-23 03:06:00,
2013-02-22 22:11:00,34.4,30.0,30.03,SE,135,0.0,0.0,84,0.00,,,0.01,WUHU216HW,2013-02-23 03:11:00,
2013-02-22 22:16:00,34.4,30.0,30.03,SE,135,0.0,0.0,84,0.00,,,0.01,WUHU216HW,2013-02-23 03:16:00,
2013-02-22 22:21:00,34.6,30.2,30.03,SE,135,0.0,0.0,84,0.00,,,0.01,WUHU216HW,2013-02-23 03:21:00,
2013-02-22 22:26:00,34.6,30.2,30.03,SE,135,0.0,0.0,84,0.00,,,0.01,WUHU216HW,2013-02-23 03:26:00,
2013-02-22 22:31:00,34.6,30.2,30.03,SE,135,0.0,0.0,84,0.00,,,0.01,WUHU216HW,2013-02-23 03:31:00,
2013-02-22 22:36:00,34.6,30.2,30.03,SE,135,0.0,0.0,84,0.00,,,0.01,WUHU216HW,2013-02-23 03:36:00,
2013-02-22 22:41:00,34.6,29.9,30.03,SE,135,0.0,0.0,83,0.00,,,0.01,WUHU216HW,2013-02-23 03:41:00,
2013-02-22 22:46:00,34.6,30.2,30.03,East,90,0.0,0.0,84,0.00,,,0.01,WUHU216HW,2013-02-23 03:46:00,
2013-02-22 22:51:00,34.6,30.2,30.02,East,90,0.0,0.0,84,0.00,,,0.01,WUHU216HW,2013-02-23 03:51:00,
2013-02-22 22:56:00,34.6,30.2,30.02,ESE,113,0.0,0.0,84,0.00,,,0.01,WUHU216HW,2013-02-23 03:56:00,
2013-02-22 23:01:00,34.6,30.2,30.03,ESE,113,0.0,0.0,84,0.00,,,0.01,WUHU216HW,2013-02-23 04:01:00,
2013-02-22 23:06:00,34.6,30.2,30.03,East,90,0.0,0.0,84,0.00,,,0.01,WUHU216HW,2013-02-23 04:06:00,
2013-02-22 23:11:00,34.6,30.2,30.02,SSE,158,0.0,0.0,84,0.00,,,0.01,WUHU216HW,2013-02-23 04:11:00,
2013-02-22 23:16:00,34.7,30.3,30.02,West,270,0.0,0.0,84,0.00,,,0.01,WUHU216HW,2013-02-23 04:16:00,
2013-02-22 23:21:00,34.7,30.3,30.02,SSW,203,0.0,0.0,84,0.00,,,0.01,WUHU216HW,2013-02-23 04:21:00,
2013-02-22 23:26:00,34.7,30.3,30.02,SE,135,0.0,0.0,84,0.00,,,0.01,WUHU216HW,2013-02-23 04:26:00,
2013-02-22 23:31:00,34.9,30.5,30.02,ESE,113,0.0,0.0,84,0.00,,,0.01,WUHU216HW,2013-02-23 04:31:00,
2013-02-22 23:36:00,34.9,30.8,30.02,SSE,158,0.0,0.0,85,0.00,,,0.01,WUHU216HW,2013-02-23 04:36:00,
2013-02-22 23:41:00,34.9,30.5,30.02,SSW,203,0.0,0.0,84,0.00,,,0.01,WUHU216HW,2013-02-23 04:41:00,
2013-02-22 23:46:00,34.9,30.5,30.01,North,0,0.0,0.0,84,0.00,,,0.01,WUHU216HW,2013-02-23 04:46:00,
2013-02-22 23:51:00,34.9,30.5,30.02,NE,45,0.0,0.0,84,0.00,,,0.01,WUHU216HW,2013-02-23 04:51:00,
2013-02-22 23:56:00,35.1,30.7,30.02,WSW,248,0.0,0.0,84,0.00,,,0.01,WUHU216HW,2013-02-23 04:56:00,